sat.trackr.live / text

‹ back to catalog

STARLINK-37443

NORAD 68824 · 2026-089Y

PAYLOAD ACTIVE UNKNOWN

§ Identity

Operator
Country
US
Launch date
2026-04-23
Launch site
AFWTR
Launch vehicle
Mass (kg)
RCS (m²)

Purposes: comms

External: N2YO · Heavens-Above · Gunter

§ Orbital elements

Epoch: 2026-09-19T00:06:07.696800Z

Period
93.91 min
Inclination
97.2855°
Eccentricity
0.0001242
Mean motion
15.33449416 rev/d
Perigee alt
464.7 km
Apogee alt
466.4 km
Semi-major
6,843.7 km
B*
5.6550e-4
RAAN
107.8495°
Arg perigee
118.4880°
Mean anomaly
241.6488°
Rev number
2,303

§ Raw data

STARLINK-374431 68824U 26089Y   26262.00425575  .00018228  00000+0  56550-3 0  99932 68824  97.2855 107.8495 0001242 118.4880 241.6488 15.33449416 23030

JSON: /api/v1/satellites/68824 · /tle

For live sub-satellite position, see the globe view (requires WebGL).

§ Visibility from observer

Set your observer location to see the next 7 days of passes ≥ 10°. The values pass through the URL so the page stays shareable.

No JS? Fill the form by hand. The geolocation button needs JavaScript.